Weather History for KODX - September, 2013

Change the Weather History Date:

Thursday, September 19, 2013

  Actual Average Record
Temperature  
Mean Temperature 62 °F 62 °F  
Max Temperature 77 °F 77 °F 89 °F (2014)
Min Temperature 47 °F 47 °F 30 °F (2003)
Degree Days  
Heating Degree Days 3 5  
Month to date heating degree days 14 46  
Since 1 July heating degree days 21 60  
Cooling Degree Days 0 2  
Month to date cooling degree days 133 69  
Year to date cooling degree days 893 826  
Growing Degree Days 10 (Base 50)    
Moisture  
Dew Point 54 °F    
Average Humidity 70    
Maximum Humidity 93    
Minimum Humidity 46    
Precipitation  
Precipitation 0.19 in 0.09 in 2.13 in (1996)
Month to date precipitation 0.39 1.66  
Year to date precipitation 19.82 20.57  
Sea Level Pressure  
Sea Level Pressure 29.85 in    
Wind  
Wind Speed 11 mph (NW)    
Max Wind Speed 35 mph    
Max Gust Speed 44 mph    
Visibility 10 miles    
Events Rain , Thunderstorm    
T = Trace of Precipitation, MM = Missing Value Source: NWS Daily Summary

Daily Weather History Graph

Daily Weather History Graph

Search for Another Location

Airport or City:

Trip Planner

Search our weather history database for the weather conditions in past years. The results will help you decide how hot, cold, wet, or windy it might be!

Date:

Astronomy

Sep. 19, 2013 Rise Set
Actual Time 7:20 AM CDT 7:37 PM CDT
Civil Twilight 6:52 AM CDT 8:05 PM CDT
Nautical Twilight 6:20 AM CDT 8:37 PM CDT
Astronomical Twilight 5:46 AM CDT 9:11 PM CDT
Moon 7:35 PM CDT (9/19) 7:32 AM CDT (9/19)
Length of Visible Light 13h 12m
Length of Day
12h 17m
Full, 100% of the Moon is Illuminated
Sep 19
Full
Sep 26
Last Quarter
Oct 4
New
Oct 11
First Quarter
Oct 18
Full

Hourly Weather History & Observations

Time (CDT) Temp. Dew Point Humidity Pressure Visibility Wind Dir Wind Speed Gust Speed Precip Events Conditions
12:53 AM 73.9 °F 64.0 °F 71% 29.64 in 10.0 mi SSW 9.2 mph - N/A   Clear
1:53 AM 75.9 °F 54.0 °F 46% 29.71 in 10.0 mi West 23.0 mph 36.8 mph N/A   Mostly Cloudy
2:20 AM 71.6 °F 55.4 °F 57% 29.72 in 10.0 mi WNW 19.6 mph 34.5 mph N/A Thunderstorm Scattered Clouds
2:35 AM 69.8 °F 55.4 °F 60% 29.68 in 8.0 mi NNW 20.7 mph 27.6 mph 0.02 in Rain Rain
2:53 AM 69.1 °F 57.0 °F 65% 29.62 in 10.0 mi NNW 17.3 mph 25.3 mph 0.02 in   Partly Cloudy
3:18 AM 69.8 °F 55.4 °F 60% 29.73 in 10.0 mi WNW 19.6 mph 33.4 mph 0.00 in Rain , Thunderstorm Light Rain
3:35 AM 68.0 °F 57.2 °F 68% 29.73 in 10.0 mi NW 21.9 mph 33.4 mph 0.00 in   Clear
3:53 AM 66.9 °F 57.0 °F 70% 29.66 in 10.0 mi NNW 20.7 mph 29.9 mph 0.00 in   Mostly Cloudy
4:14 AM 69.8 °F 57.2 °F 64% 29.68 in 10.0 mi North 13.8 mph 25.3 mph N/A Thunderstorm Mostly Cloudy
4:32 AM 69.8 °F 57.2 °F 64% 29.67 in 10.0 mi Calm Calm - N/A Thunderstorm Mostly Cloudy
4:53 AM 66.0 °F 59.0 °F 78% 29.69 in 4.0 mi SW 9.2 mph 21.9 mph 0.09 in Rain , Thunderstorm Heavy Thunderstorms and Rain
5:40 AM 64.4 °F 60.8 °F 88% 29.78 in 10.0 mi Calm Calm - 0.05 in Rain Light Rain
5:53 AM 63.0 °F 61.0 °F 93% 29.76 in 10.0 mi Variable 3.5 mph - 0.06 in Rain Light Rain
6:53 AM 64.0 °F 61.0 °F 90% 29.73 in 10.0 mi Calm Calm - 0.01 in Rain Light Rain
7:53 AM 62.1 °F 60.1 °F 93% 29.79 in 10.0 mi WNW 3.5 mph - 0.00 in   Clear
8:27 AM 62.6 °F 60.8 °F 94% 29.87 in 10.0 mi NW 5.8 mph - N/A   Mostly Cloudy
8:41 AM 62.6 °F 59.0 °F 88% 29.87 in 10.0 mi NW 5.8 mph - N/A   Scattered Clouds
8:53 AM 63.0 °F 59.0 °F 87% 29.85 in 10.0 mi North 8.1 mph - N/A   Partly Cloudy
9:53 AM 62.1 °F 57.0 °F 84% 29.88 in 10.0 mi NNW 12.7 mph - N/A   Clear
10:53 AM 64.0 °F 52.0 °F 65% 29.89 in 10.0 mi NNW 17.3 mph - N/A   Clear
11:53 AM 64.9 °F 50.0 °F 58% 29.92 in 10.0 mi NNW 15.0 mph - N/A   Partly Cloudy
12:53 PM 64.0 °F 50.0 °F 60% 29.96 in 10.0 mi NNW 13.8 mph 24.2 mph 0.00 in Rain Light Rain
1:53 PM 66.0 °F 48.0 °F 52% 29.97 in 10.0 mi NW 21.9 mph 33.4 mph 0.00 in   Overcast
2:53 PM 62.1 °F 46.9 °F 58% 29.95 in 10.0 mi North 15.0 mph 24.2 mph N/A   Overcast
3:53 PM 60.1 °F 48.9 °F 67% 29.96 in 10.0 mi North 9.2 mph - N/A   Overcast
4:53 PM 59.0 °F 52.0 °F 78% 29.98 in 10.0 mi NNW 17.3 mph 23.0 mph 0.01 in   Scattered Clouds
5:53 PM 63.0 °F 51.1 °F 65% 29.97 in 10.0 mi NNW 13.8 mph 23.0 mph N/A   Partly Cloudy
6:53 PM 62.1 °F 48.9 °F 62% 29.96 in 10.0 mi NNW 10.4 mph - N/A   Mostly Cloudy
7:53 PM 55.9 °F 48.9 °F 77% 30.00 in 10.0 mi WNW 4.6 mph - N/A   Mostly Cloudy
8:53 PM 54.0 °F 48.0 °F 80% 30.03 in 10.0 mi NNW 3.5 mph - N/A   Clear
9:53 PM 50.0 °F 46.0 °F 86% 30.07 in 10.0 mi Calm Calm - N/A   Clear
10:53 PM 46.9 °F 44.1 °F 90% 30.10 in 10.0 mi WNW 5.8 mph - N/A   Clear
11:53 PM 46.9 °F 44.1 °F 90% 30.12 in 10.0 mi NW 6.9 mph - N/A   Clear